Location: Middle Street
(51.7167°N, 0.0333°E)
Time: 03:13:18
(UTC+00:00)

USA 234 - Pass Details

Date: 20 January 2021
Orbit: 1100 x 1107 km, 123.0° (Epoch: 23 February)

Event Time Altitude Azimuth Distance (km) Brightness Sun altitude
Exits shadow 20:27:35 57° 266° (W) 1,281 3.7 -36.5°
Drops below altitude 10° 20:32:56 10° 298° (WNW) 2,968 6.2 -37.3°
Sets 20:35:27 0° 301° (WNW) 3,929 7.0 -37.6°
